SCP
0 0 0 0 0 0 0 0 0 0 0 0 0 0 0 0 0 0 0 0 0 0 -0 0 0 0 0 0 0 0 -0 0 -0 -0 -0 0 -0 0 0 0 0 0 0 0 0 0 0 0 0 0 0 0 0 0
0 0 0 0 0 0 0 0 0 0 0 0 0 0 0 0 0 0 0 0 0 0 -0 0 -0 0 0 -0 0 0 0 -0 -0 0 0 0 -0 0 0 0 0 0 0 0 0 0 0 0 0 0 0 0 0 0
0 0 0 0 0 0 0 0 0 0 0 0 0 0 0 0 0 0 0 0 0 0 -0 -0 -0 -0 -0 -0 -0 -0 -0 -0 0 -0 -0 -0 0 0 0 0 0 0 0 0 0 0 0 0 0 0 0 0 0 0
0 0 0 0 0 0 0 0 0 0 0 0 0 0 0 0 0 0 0 0 0 0 0 -0 -0 0 0 -0 0 0 -0 0 -0 -0 0 -0 0 0 0 0 0 0 0 0 0 0 0 0 0 0 0 0 0 0
0 0 0 0 0 0 0 0 0 0 0 0 0 0 0 0 0 0 0 0 0 0 0 0 -0 -0 -0 -0 0 -0 0 -0 0 0 0 0 -0 0 0 0 0 0 0 0 0 0 0 0 0 0 0 0 0 0
0 0 0 0 0 0 0 0 0 0 0 0 0 0 0 0 0 0 0 0 0 0 0 0 0 0 0 -0 0 0 0 0 0 0 0 0 0 0 0 0 0 0 0 0 0 0 0 0 0 0 0 0 0 0
0 0 0 0 0 0 0 0 0 0 0 0 0 0 0 0 0 0 0 0 0 0 0 0 0 0 0 0 0 0 0 0 0 0 0 0 0 0 0 0 0 0 0 0 0 0 0 0 0 0 0 0 0 0
0 0 0 0 0 0 0 0 0 0 0 0 0 0 0 0 0 0 0 0 0 0 0 0 0 0 0 0 0 0 0 0 0 0 0 0 0 0 0 0 0 0 0 0 0 0 0 0 0 0 0 0 0 0
0 0 0 0 0 0 0 0 0 0 0 -0 0 0 0 0 0 0 0 0 0 0 0 0 0 0 0 0 0 0 0 0 0 0 0 0 0 0 0 0 0 0 0 0 0 0 0 0 0 0 0 0 0 0
0 0 0 0 0 0 0 0 0 0 0 0 0 0 0 0 0 0 0 0 0 0 0 0 0 0 0 0 0 0 0 0 0 0 0 0 0 0 0 0 0 0 0 0 0 0 0 0 0 0 0 0 0 0
0 0 0 0 0 0 0 0 0 0 0 0 0 0 0 0 0 0 0 0 0 0 0 0 0 0 0 0 0 0 0 0 0 0 0 0 0 0 0 0 0 0 0 0 0 0 0 0 0 0 0 0 0 0
0 0 0 0 0 0 0 0 0 0 0 0 0 0 0 0 0 0 0 0 0 0 0 0 0 0 0 0 0 0 0 0 0 0 0 0 0 0 0 0 0 0 0 0 0 0 0 0 0 0 0 0 0 0
0 0 0 0 0 0 0 0 0 0 0 0 0 0 0 0 0 0 0 0 0 0 0 0 0 0 0 0 0 0 0 0 0 0 0 0 0 0 0 0 0 0 0 0 0 0 0 0 0 0 0 0 0 0
0 0 0 0 0 0 0 0 0 0 0 0 0 0 0 0 0 0 0 0 0 0 0 0 0 0 0 0 0 0 0 0 0 0 0 0 0 0 0 0 0 0 0 0 0 0 0 0 0 0 0 0 0 -0
0 0 0 0 0 0 0 0 0 0 0 0 0 0 0 0 0 0 0 0 0 0 0 0 0 0 0 0 0 0 0 0 0 0 0 0 0 0 0 0 0 0 0 0 0 0 0 0 0 0 -0 0 0 0
0 0 0 0 0 0 0 0 0 0 0 0 0 0 0 0 0 0 0 0 0 0 0 0 0 0 0 0 0 0 0 0 0 0 0 0 0 0 0 0 0 0 0 0 0 0 0 0 0 -0 -0 0 0 -0
0 0 0 0 0 0 0 0 0 0 0 0 0 0 0 0 0 0 0 0 0 0 0 0 0 0 0 0 0 0 0 0 0 0 0 0 0 0 0 0 0 0 0 0 0 0 0 0 -0 -0 -0 0 -0 0
0 0 0 0 0 0 0 0 0 0 0 0 0 0 0 0 0 0 0 0 0 0 0 0 0 0 0 0 0 0 0 0 0 0 0 0 0 0 0 0 0 0 0 0 0 0 0 0 -0 0 -0 0 0 -0
0 0 0 0 0 0 0 0 0 0 0 0 0 0 0 0 0 0 0 0 0 0 0 0 0 0 0 0 0 0 1 0 0 0 0 0 0 0 0 0 0 0 0 0 0 0 0 -0 0 0 0 -0 -0 -0
0 0 0 0 0 0 0 0 0 0 0 0 0 0 0 0 0 0 -0 -0 0 0 0 0 0 0 0 0 0 0 0 0 0 0 0 0 0 0 0 0 0 0 0 0 0 0 0 0 0 0 0 0 -0 0
0 0 0 0 -0 0 0 0 0 0 0 0 0 0 0 0 0 0 0 -0 0 0 0 0 0 0 0 0 0 0 0 0 0 0 0 0 0 0 0 0 0 0 0 0 0 0 0 0 0 0 0 0 0 0
0 0 0 0 0 0 0 0 0 0 0 0 0 -0 0 -0 0 -0 -0 -0 -0 0 0 0 0 0 0 0 0 0 0 0 0 0 0 0 0 0 0 0 0 0 0 0 0 0 0 0 0 0 0 0 -0 0
0 0 0 0 0 0 0 0 0 0 0 0 0 0 0 0 0 -0 0 0 0 0 0 0 0 0 0 0 0 0 0 0 0 0 0 0 0 0 0 0 0 0 0 0 0 0 0 0 0 0 0 0 -0 0
0 0 0 0 0 0 0 0 0 0 0 0 0 0 0 0 0 0 0 0 0 0 0 0 0 0 0 0 0 0 0 0 0 0 0 0 0 0 0 0 0 0 0 0 0 0 0 0 0 -0 0 0 -0 0
0 0 0 0 0 0 0 0 0 0 0 0 0 0 0 0 0 0 0 0 0 0 0 0 0 0 0 0 0 0 0 0 0 0 0 0 0 0 0 0 0 0 0 0 0 0 0 0 0 0 -0 0 0 -0
0 0 0 0 0 0 0 0 0 0 0 0 0 0 0 0 0 0 0 0 0 0 0 0 0 0 0 0 0 0 0 0 -0 0 0 0 0 0 0 0 0 0 0 0 0 0 0 0 0 0 0 -0 0 0
0 0 0 0 0 0 0 0 0 0 0 0 0 0 0 0 0 0 0 0 0 0 0 0 0 0 0 0 0 0 0 0 0 0 0 0 0 0 0 0 0 0 0 0 0 0 0 0 0 0 0 0 0 0
0 0 0 -0 0 0 0 0 0 0 0 0 0 0 0 0 0 0 0 0 0 0 0 0 0 0 0 0 0 0 0 0 -0 0 0 0 0 0 0 0 0 0 0 0 0 0 0 0 0 0 0 0 0 0
0 0 0 0 0 0 0 0 0 0 0 0 0 0 0 0 0 0 0 0 0 0 0 0 0 0 0 0 0 0 0 0 0 0 0 0 0 0 0 0 0 0 0 0 0 0 0 0 0 0 0 0 -0 0
-0 0 0 0 0 0 0 0 0 0 0 0 0 0 0 0 0 0 0 0 0 0 0 0 0 0 0 0 0 0 0 0 0 0 0 0 0 0 0 0 0 0 0 0 0 0 0 0 0 0 0 0 0 0
0 -0 -0 0 -0 -0 -0 -0 0 0 0 0 0 0 0 0 0 0 0 0 0 0 0 0 0 0 0 0 0 0 0 0 0 0 0 0 0 0 0 0 0 0 0 0 0 0 0 0 0 0 -0 -0 0 0
0 0 -0 -0 0 -0 -0 0 0 0 0 0 0 0 0 0 0 0 0 0 0 0 0 0 0 0 0 0 0 0 0 0 0 0 0 0 0 0 0 0 0 0 0 0 -0 0 0 -0 0 0 -0 -0 -0 0
0 -0 0 0 0 0 0 -0 -0 -0 -0 -0 -0 -0 -0 -0 0 0 0 0 0 0 0 0 0 0 0 0 0 0 0 0 0 0 0 0 0 0 0 0 0 0 0 0 0 0 0 0 0 0 0 0 -0 0
Wind_Speed_500mb
34 34 35 37 38 39 37 36 33 27 28 26 25 20 16 10 5 10 6 5 3 11 10 2 5 7 5 8 11 11 10 10 13 10 8 5 9 1 8 11 10 10 7 7 9 6 4 13 5 11 6 6 15 19
38 38 41 41 40 37 32 29 24 23 23 23 23 20 13 8 6 10 6 6 6 8 11 4 5 4 2 8 14 2 6 5 17 7 6 5 7 8 5 3 2 3 11 9 8 7 7 12 16 11 9 14 15 15
35 33 34 31 30 26 22 21 21 20 19 20 20 19 10 8 9 16 11 4 2 9 17 12 12 8 2 1 4 14 10 10 2 11 19 9 6 10 6 3 11 7 5 9 6 4 9 10 12 13 14 14 13 12
34 31 24 23 21 18 16 17 17 17 17 18 18 19 8 8 11 16 17 2 1 6 12 11 6 12 11 6 5 3 7 8 11 13 20 11 8 0 3 3 12 7 12 10 12 10 10 9 12 11 13 13 12 13
24 22 21 18 13 11 10 12 14 14 15 16 17 19 5 11 13 17 18 4 4 6 12 8 3 10 6 12 13 8 3 7 14 11 12 10 14 8 17 6 10 7 13 8 3 12 13 14 12 10 9 10 9 9
28 23 19 13 11 9 9 10 11 12 12 14 16 12 6 17 18 21 7 5 7 3 9 5 5 7 10 13 15 12 8 8 10 9 9 9 3 8 7 5 11 12 11 9 12 12 18 20 15 11 10 9 9 11
26 21 17 14 9 8 9 9 10 11 11 12 13 6 19 25 29 3 5 7 15 7 8 8 10 10 13 16 17 15 10 11 10 10 9 19 8 11 12 12 16 12 11 16 20 22 18 14 15 12 11 12 14 15
24 17 11 9 8 7 7 8 8 7 8 9 5 17 23 28 19 8 10 1 19 7 8 8 4 9 21 18 18 16 13 12 13 13 4 15 16 11 7 17 13 13 18 18 9 7 16 18 18 14 11 12 13 16
23 17 11 3 3 3 3 2 2 3 7 9 28 26 21 12 6 10 6 8 15 3 10 9 10 7 17 22 17 11 11 10 11 13 16 5 10 9 1 17 17 19 21 17 15 15 17 15 14 11 8 10 13 18
23 15 8 4 1 4 7 13 5 7 33 38 29 4 5 9 6 6 3 7 10 13 11 16 16 5 16 18 16 10 13 11 9 15 7 9 18 19 8 2 20 23 17 21 18 14 10 9 8 7 6 9 16 18
18 14 8 4 4 8 12 15 17 29 35 9 5 4 2 14 10 7 3 7 11 8 15 22 26 17 16 14 15 13 3 7 7 8 7 11 10 21 18 17 18 21 22 16 10 7 5 6 7 10 10 16 21 16
18 14 10 6 8 11 13 18 25 23 16 8 7 11 11 7 6 7 8 10 10 9 11 17 23 28 12 13 11 6 8 7 9 13 7 8 14 23 19 24 23 24 23 17 15 12 9 10 12 13 18 22 22 16
19 16 12 8 10 16 12 18 23 18 18 8 3 8 4 7 2 10 14 7 7 14 9 11 12 27 7 20 8 7 8 11 7 9 9 5 23 19 20 24 29 26 22 21 18 16 14 15 15 19 24 26 21 14
18 18 14 8 11 13 12 16 17 21 17 2 5 1 8 9 9 11 11 10 4 3 11 14 20 22 22 20 13 10 12 4 11 12 15 20 27 23 26 30 33 30 24 20 18 16 15 15 19 25 28 25 19 14
17 17 14 9 11 15 14 20 18 18 6 1 4 7 12 18 12 10 13 17 12 12 20 17 23 26 10 5 8 10 9 12 13 11 17 29 29 28 32 33 31 28 23 19 18 16 15 19 24 29 28 23 17 13
14 13 10 11 12 14 17 15 21 14 4 2 7 9 13 14 21 13 17 22 18 18 20 20 6 7 15 8 11 14 11 12 10 19 26 28 33 32 34 32 29 24 21 19 17 17 18 22 26 30 27 21 16 11
20 6 13 14 13 12 18 20 15 11 9 10 11 18 19 17 20 19 14 8 10 13 16 11 10 13 10 10 11 7 17 4 25 15 18 27 36 36 35 32 28 25 22 20 19 19 20 23 28 29 27 21 14 9
11 7 17 16 15 8 10 11 8 5 8 12 15 14 15 21 15 5 6 8 9 7 12 9 13 12 10 12 15 17 16 17 25 9 23 34 40 38 35 32 27 23 21 19 19 20 22 25 30 28 24 19 12 7
20 15 19 18 15 12 7 7 7 6 15 13 20 19 12 1 3 1 1 8 3 4 5 14 14 10 8 4 8 17 9 15 15 10 22 31 36 35 33 30 26 21 20 19 19 17 19 24 28 28 25 20 14 12
14 16 20 20 18 7 7 8 12 9 8 12 9 9 4 3 3 3 7 7 14 9 5 2 11 16 12 13 17 19 12 11 12 13 19 25 30 32 32 29 25 23 19 18 16 19 18 23 25 26 24 20 19 13
14 12 17 19 16 12 8 9 9 8 6 4 5 8 2 10 8 4 4 9 4 6 7 9 16 6 11 12 13 13 12 13 15 9 12 17 23 30 31 28 27 21 18 16 14 17 21 20 24 28 27 21 18 14
13 16 17 16 8 10 10 8 7 5 4 7 7 9 7 10 15 14 19 19 13 5 2 5 3 2 3 2 7 9 9 10 10 5 3 9 17 26 29 30 30 25 19 16 15 14 17 19 24 31 29 26 23 14
19 12 4 10 7 5 6 9 8 6 6 5 6 6 10 12 9 11 8 5 5 4 6 4 4 3 2 2 3 3 3 5 5 5 7 9 9 15 27 31 31 26 20 18 15 13 15 21 27 31 34 30 28 19
6 3 5 6 11 5 7 8 8 6 6 8 9 4 6 6 8 5 6 4 9 6 11 7 7 10 9 10 11 9 5 6 11 14 15 18 21 18 18 29 33 31 25 20 17 16 13 17 22 32 34 36 31 27
4 4 6 8 7 7 5 7 12 11 7 8 7 6 9 8 5 6 2 5 5 7 7 8 11 14 9 9 8 5 9 9 17 23 23 21 26 28 26 26 29 32 29 26 23 20 15 14 16 25 34 38 37 31
4 7 7 5 7 6 9 5 7 6 11 11 8 4 6 4 3 3 2 4 1 1 1 4 7 8 10 8 8 5 8 17 18 16 13 18 20 32 34 27 33 39 34 28 26 23 19 17 16 21 27 40 44 36
7 9 13 9 6 9 7 7 6 6 7 6 6 8 5 4 7 5 9 5 6 5 5 4 6 11 9 8 4 5 6 14 20 14 16 14 15 21 27 25 34 38 39 32 29 26 21 18 17 20 24 40 44 42
4 0 7 15 10 6 3 6 7 4 3 4 4 7 3 8 6 9 8 3 2 4 6 10 8 9 8 4 6 5 8 12 23 13 10 11 19 23 28 25 29 45 38 36 30 22 18 16 16 18 23 36 43 43
6 7 3 8 10 6 6 0 1 4 6 5 5 4 3 2 2 5 3 7 10 12 15 14 11 9 9 6 4 3 5 9 14 11 8 9 8 7 13 21 22 31 47 40 36 24 18 14 12 13 21 35 38 37
7 6 5 2 5 3 3 7 5 5 5 5 5 7 9 7 6 11 12 14 15 15 15 14 11 11 10 8 8 12 8 11 8 10 1 8 18 10 6 16 22 30 31 20 26 29 25 15 8 14 22 31 35 38
1 5 5 3 4 7 5 5 5 4 4 6 9 5 6 9 8 3 7 9 8 8 10 12 13 13 13 11 9 9 12 10 9 13 13 14 10 16 16 10 22 26 33 42 34 26 27 20 14 14 20 28 35 39
6 6 6 9 5 5 7 4 1 0 2 3 3 1 2 2 1 2 7 12 9 6 15 17 15 16 13 15 15 12 14 6 6 7 12 15 24 4 11 13 6 11 19 35 46 38 35 28 22 17 15 17 29 38
9 15 13 11 7 5 5 3 1 1 2 2 3 3 4 4 2 6 10 10 11 12 12 19 20 16 22 26 22 21 16 12 17 17 18 17 18 25 9 4 9 8 8 9 19 26 32 33 28 24 20 18 19 21
Wind_Direction_500mb
241 245 253 262 268 274 284 293 296 299 305 312 315 323 319 309 275 178 239 217 117 290 86 37 42 359 349 269 315 46 243 197 260 254 266 1 262 18 277 18 342 329 315 321 341 318 344 345 335 4 55 61 10 18
243 247 255 260 264 272 280 283 286 294 301 309 316 321 308 280 234 179 100 280 217 254 23 236 244 272 314 4 341 282 14 360 2 347 319 252 254 224 34 217 157 330 21 329 19 16 73 46 74 76 53 48 34 20
237 238 245 258 260 261 266 277 285 290 298 306 312 313 299 254 213 198 165 263 293 274 254 217 209 218 218 233 326 313 86 354 307 326 318 345 316 327 340 279 269 62 32 285 271 107 111 102 91 85 78 70 44 37
224 235 234 235 241 248 263 275 283 288 294 301 306 307 289 229 203 192 151 220 229 310 285 126 209 241 220 209 201 298 335 333 296 269 273 281 299 305 354 360 286 103 235 311 72 56 119 131 104 104 85 67 53 49
208 200 201 222 211 232 255 274 281 285 289 296 305 306 277 191 182 188 199 167 244 296 329 74 189 208 211 207 209 218 235 300 276 231 225 249 270 338 255 301 279 23 26 26 16 21 14 132 127 119 84 57 52 73
179 184 203 195 199 227 260 275 282 285 282 295 309 307 174 157 159 133 169 232 249 214 276 249 103 208 202 192 194 203 219 258 273 289 266 291 39 285 285 263 125 94 63 23 98 71 89 120 122 112 96 68 78 105
169 180 189 188 209 250 268 270 280 278 274 293 313 174 142 148 146 142 23 190 203 188 251 248 188 169 192 193 201 214 216 251 270 283 246 273 155 204 277 286 127 101 116 116 116 114 114 140 134 123 103 91 108 123
173 173 179 211 226 283 283 283 278 254 252 293 195 142 141 139 113 66 7 297 170 197 255 265 164 187 185 196 208 213 237 212 212 256 264 246 164 224 269 116 117 142 142 146 127 83 117 132 133 128 114 115 120 135
168 170 172 184 250 289 273 116 128 244 266 148 123 113 121 128 204 161 101 123 176 237 287 225 259 153 172 219 206 173 238 235 159 240 232 206 235 216 111 156 158 164 167 158 140 124 125 134 139 140 131 142 141 146
178 182 191 194 176 151 114 125 92 109 129 127 119 99 176 187 220 177 278 205 196 214 244 258 247 263 190 184 199 216 178 255 220 189 137 230 254 111 159 214 159 176 159 162 158 160 148 145 147 160 150 155 151 150
183 187 189 179 143 154 147 137 129 141 136 126 146 56 16 147 139 210 268 250 205 230 216 232 236 229 207 222 214 216 298 204 243 150 228 205 217 155 173 182 175 171 165 164 156 157 171 169 174 167 152 150 151 146
192 190 190 177 156 145 162 151 154 157 167 167 142 114 136 195 223 218 206 203 231 239 180 231 214 219 178 222 233 174 245 199 258 133 230 238 115 135 157 185 174 172 166 154 140 137 134 142 156 160 156 151 149 144
190 187 182 174 165 176 162 177 181 172 175 160 206 166 205 176 32 219 195 209 238 178 236 219 221 211 181 219 215 221 233 229 110 223 222 68 129 141 150 167 166 168 161 148 134 132 133 135 146 152 151 151 148 144
182 180 179 173 167 168 158 157 172 171 176 239 182 332 219 206 227 226 241 289 238 263 270 236 235 204 215 202 215 212 223 154 231 229 218 140 141 141 148 154 155 157 154 146 138 134 135 139 146 150 151 151 147 142
177 179 176 171 164 170 172 173 162 181 169 267 265 236 219 243 259 281 296 298 276 258 261 246 241 210 215 207 250 228 195 232 206 221 104 122 138 149 152 153 152 151 148 143 141 139 141 149 151 152 154 153 149 151
159 159 189 166 167 170 175 171 176 170 213 234 243 263 251 268 279 321 321 311 310 265 247 258 216 243 227 222 226 208 227 229 177 110 125 142 144 152 152 151 151 148 147 145 142 143 148 155 158 159 157 158 160 148
139 174 199 164 159 163 172 165 159 192 228 208 217 233 268 283 270 299 299 304 292 287 245 225 220 220 264 229 221 297 254 120 127 127 138 155 155 157 152 149 147 144 143 143 141 141 149 159 161 163 165 167 167 175
116 226 172 160 143 157 181 172 194 255 261 238 255 258 243 289 311 312 346 327 316 309 273 246 285 224 238 238 210 155 194 122 86 131 148 151 155 156 153 151 148 145 144 143 143 147 152 164 169 171 171 170 178 167
169 191 177 171 164 161 181 218 203 265 238 251 241 260 256 243 79 210 138 322 204 19 243 343 260 249 265 17 185 112 103 113 120 135 139 149 154 156 156 153 152 151 147 149 147 150 162 170 175 176 176 175 197 174
188 187 181 182 181 195 217 213 200 237 249 211 220 246 246 185 239 197 185 95 66 61 56 261 293 344 357 97 88 98 108 124 156 155 147 156 162 163 164 165 166 161 155 156 156 158 164 171 183 185 183 182 190 173
133 189 189 186 199 235 265 215 200 234 251 196 157 163 175 184 156 150 211 176 190 244 175 235 273 288 39 48 73 83 71 70 73 102 133 153 171 177 175 173 170 172 174 174 171 175 174 185 190 188 191 187 190 201
178 189 163 180 231 221 242 217 232 221 219 116 157 194 152 161 156 199 209 201 228 191 137 156 160 106 149 65 57 63 48 45 54 65 75 174 196 195 191 184 185 185 190 188 181 183 181 189 190 191 188 191 188 189
143 120 198 199 238 239 255 206 222 223 204 151 205 219 179 172 220 191 222 197 127 174 180 173 170 171 153 131 75 33 3 347 309 290 270 251 234 208 199 201 196 193 189 182 182 178 178 188 195 190 192 193 192 204
140 227 228 209 209 235 194 209 209 199 170 182 183 202 200 179 164 211 260 199 110 196 200 201 215 204 201 214 225 225 240 292 295 285 275 256 246 221 208 205 201 199 198 180 185 183 187 183 198 193 196 197 200 196
250 234 228 246 233 202 213 204 195 178 184 197 182 226 158 171 233 217 310 345 242 224 234 237 231 239 234 216 199 217 236 278 303 292 273 249 241 234 216 205 209 201 195 184 187 190 188 188 195 199 201 202 202 201
267 204 211 234 196 220 188 200 194 159 184 184 185 164 172 184 254 243 122 65 98 187 209 256 276 265 250 247 222 236 293 314 323 293 277 240 250 234 230 215 209 205 197 196 194 196 197 202 208 206 211 206 206 208
242 200 194 217 241 200 221 182 178 198 214 200 157 192 205 211 206 154 130 106 79 56 25 341 291 270 294 217 192 272 296 326 337 294 268 267 257 245 237 234 215 203 199 196 195 201 201 208 217 219 218 207 204 201
282 30 213 169 211 204 250 206 204 227 144 216 222 222 164 152 203 116 116 175 283 311 328 323 316 292 284 210 221 255 280 331 334 317 274 282 264 241 238 239 226 211 196 189 195 198 205 211 219 224 217 203 196 198
218 161 162 182 200 196 205 211 65 66 61 13 356 43 21 93 359 350 320 302 285 281 291 292 275 270 274 274 239 262 318 318 333 335 349 288 230 235 230 231 206 204 200 192 190 188 184 196 209 214 203 192 189 194
135 227 257 158 276 105 60 22 22 26 31 23 333 293 281 276 298 298 299 287 284 286 277 269 267 262 277 271 265 262 286 303 327 286 70 114 12 65 156 193 198 192 200 182 184 191 197 198 205 178 179 186 190 191
170 220 265 269 276 61 17 318 292 320 318 300 328 309 272 290 281 303 334 323 315 294 277 272 263 260 257 263 282 312 276 251 260 281 261 211 70 61 63 134 174 188 201 212 189 197 193 182 174 171 180 191 194 195
244 266 309 305 326 272 281 265 241 298 314 323 321 4 5 284 197 128 12 354 348 321 270 261 271 262 259 263 270 271 280 251 259 263 263 255 242 178 45 75 92 164 189 211 199 188 194 192 187 181 175 182 193 198
292 300 293 296 293 268 269 228 139 169 226 259 262 282 278 304 60 10 347 345 330 330 322 283 261 250 263 259 254 232 210 218 231 261 283 291 284 243 234 27 359 9 65 137 184 197 198 201 204 200 194 186 185 192
Wind_Speed_850mb
34 34 35 37 38 39 37 36 33 27 28 26 25 20 16 10 5 10 6 5 3 11 10 2 5 7 5 8 11 11 10 10 13 10 8 5 9 1 8 11 10 10 7 7 9 6 4 13 5 11 6 6 15 19
38 38 41 41 40 37 32 29 24 23 23 23 23 20 13 8 6 10 6 6 6 8 11 4 5 4 2 8 14 2 6 5 17 7 6 5 7 8 5 3 2 3 11 9 8 7 7 12 16 11 9 14 15 15
35 33 34 31 30 26 22 21 21 20 19 20 20 19 10 8 9 16 11 4 2 9 17 12 12 8 2 1 4 14 10 10 2 11 19 9 6 10 6 3 11 7 5 9 6 4 9 10 12 13 14 14 13 12
34 31 24 23 21 18 16 17 17 17 17 18 18 19 8 8 11 16 17 2 1 6 12 11 6 12 11 6 5 3 7 8 11 13 20 11 8 0 3 3 12 7 12 10 12 10 10 9 12 11 13 13 12 13
24 22 21 18 13 11 10 12 14 14 15 16 17 19 5 11 13 17 18 4 4 6 12 8 3 10 6 12 13 8 3 7 14 11 12 10 14 8 17 6 10 7 13 8 3 12 13 14 12 10 9 10 9 9
28 23 19 13 11 9 9 10 11 12 12 14 16 12 6 17 18 21 7 5 7 3 9 5 5 7 10 13 15 12 8 8 10 9 9 9 3 8 7 5 11 12 11 9 12 12 18 20 15 11 10 9 9 11
26 21 17 14 9 8 9 9 10 11 11 12 13 6 19 25 29 3 5 7 15 7 8 8 10 10 13 16 17 15 10 11 10 10 9 19 8 11 12 12 16 12 11 16 20 22 18 14 15 12 11 12 14 15
24 17 11 9 8 7 7 8 8 7 8 9 5 17 23 28 19 8 10 1 19 7 8 8 4 9 21 18 18 16 13 12 13 13 4 15 16 11 7 17 13 13 18 18 9 7 16 18 18 14 11 12 13 16
23 17 11 3 3 3 3 2 2 3 7 9 28 26 21 12 6 10 6 8 15 3 10 9 10 7 17 22 17 11 11 10 11 13 16 5 10 9 1 17 17 19 21 17 15 15 17 15 14 11 8 10 13 18
23 15 8 4 1 4 7 13 5 7 33 38 29 4 5 9 6 6 3 7 10 13 11 16 16 5 16 18 16 10 13 11 9 15 7 9 18 19 8 2 20 23 17 21 18 14 10 9 8 7 6 9 16 18
18 14 8 4 4 8 12 15 17 29 35 9 5 4 2 14 10 7 3 7 11 8 15 22 26 17 16 14 15 13 3 7 7 8 7 11 10 21 18 17 18 21 22 16 10 7 5 6 7 10 10 16 21 16
18 14 10 6 8 11 13 18 25 23 16 8 7 11 11 7 6 7 8 10 10 9 11 17 23 28 12 13 11 6 8 7 9 13 7 8 14 23 19 24 23 24 23 17 15 12 9 10 12 13 18 22 22 16
19 16 12 8 10 16 12 18 23 18 18 8 3 8 4 7 2 10 14 7 7 14 9 11 12 27 7 20 8 7 8 11 7 9 9 5 23 19 20 24 29 26 22 21 18 16 14 15 15 19 24 26 21 14
18 18 14 8 11 13 12 16 17 21 17 2 5 1 8 9 9 11 11 10 4 3 11 14 20 22 22 20 13 10 12 4 11 12 15 20 27 23 26 30 33 30 24 20 18 16 15 15 19 25 28 25 19 14
17 17 14 9 11 15 14 20 18 18 6 1 4 7 12 18 12 10 13 17 12 12 20 17 23 26 10 5 8 10 9 12 13 11 17 29 29 28 32 33 31 28 23 19 18 16 15 19 24 29 28 23 17 13
14 13 10 11 12 14 17 15 21 14 4 2 7 9 13 14 21 13 17 22 18 18 20 20 6 7 15 8 11 14 11 12 10 19 26 28 33 32 34 32 29 24 21 19 17 17 18 22 26 30 27 21 16 11
20 6 13 14 13 12 18 20 15 11 9 10 11 18 19 17 20 19 14 8 10 13 16 11 10 13 10 10 11 7 17 4 25 15 18 27 36 36 35 32 28 25 22 20 19 19 20 23 28 29 27 21 14 9
11 7 17 16 15 8 10 11 8 5 8 12 15 14 15 21 15 5 6 8 9 7 12 9 13 12 10 12 15 17 16 17 25 9 23 34 40 38 35 32 27 23 21 19 19 20 22 25 30 28 24 19 12 7
20 15 19 18 15 12 7 7 7 6 15 13 20 19 12 1 3 1 1 8 3 4 5 14 14 10 8 4 8 17 9 15 15 10 22 31 36 35 33 30 26 21 20 19 19 17 19 24 28 28 25 20 14 12
14 16 20 20 18 7 7 8 12 9 8 12 9 9 4 3 3 3 7 7 14 9 5 2 11 16 12 13 17 19 12 11 12 13 19 25 30 32 32 29 25 23 19 18 16 19 18 23 25 26 24 20 19 13
14 12 17 19 16 12 8 9 9 8 6 4 5 8 2 10 8 4 4 9 4 6 7 9 16 6 11 12 13 13 12 13 15 9 12 17 23 30 31 28 27 21 18 16 14 17 21 20 24 28 27 21 18 14
13 16 17 16 8 10 10 8 7 5 4 7 7 9 7 10 15 14 19 19 13 5 2 5 3 2 3 2 7 9 9 10 10 5 3 9 17 26 29 30 30 25 19 16 15 14 17 19 24 31 29 26 23 14
19 12 4 10 7 5 6 9 8 6 6 5 6 6 10 12 9 11 8 5 5 4 6 4 4 3 2 2 3 3 3 5 5 5 7 9 9 15 27 31 31 26 20 18 15 13 15 21 27 31 34 30 28 19
6 3 5 6 11 5 7 8 8 6 6 8 9 4 6 6 8 5 6 4 9 6 11 7 7 10 9 10 11 9 5 6 11 14 15 18 21 18 18 29 33 31 25 20 17 16 13 17 22 32 34 36 31 27
4 4 6 8 7 7 5 7 12 11 7 8 7 6 9 8 5 6 2 5 5 7 7 8 11 14 9 9 8 5 9 9 17 23 23 21 26 28 26 26 29 32 29 26 23 20 15 14 16 25 34 38 37 31
4 7 7 5 7 6 9 5 7 6 11 11 8 4 6 4 3 3 2 4 1 1 1 4 7 8 10 8 8 5 8 17 18 16 13 18 20 32 34 27 33 39 34 28 26 23 19 17 16 21 27 40 44 36
7 9 13 9 6 9 7 7 6 6 7 6 6 8 5 4 7 5 9 5 6 5 5 4 6 11 9 8 4 5 6 14 20 14 16 14 15 21 27 25 34 38 39 32 29 26 21 18 17 20 24 40 44 42
4 0 7 15 10 6 3 6 7 4 3 4 4 7 3 8 6 9 8 3 2 4 6 10 8 9 8 4 6 5 8 12 23 13 10 11 19 23 28 25 29 45 38 36 30 22 18 16 16 18 23 36 43 43
6 7 3 8 10 6 6 0 1 4 6 5 5 4 3 2 2 5 3 7 10 12 15 14 11 9 9 6 4 3 5 9 14 11 8 9 8 7 13 21 22 31 47 40 36 24 18 14 12 13 21 35 38 37
7 6 5 2 5 3 3 7 5 5 5 5 5 7 9 7 6 11 12 14 15 15 15 14 11 11 10 8 8 12 8 11 8 10 1 8 18 10 6 16 22 30 31 20 26 29 25 15 8 14 22 31 35 38
1 5 5 3 4 7 5 5 5 4 4 6 9 5 6 9 8 3 7 9 8 8 10 12 13 13 13 11 9 9 12 10 9 13 13 14 10 16 16 10 22 26 33 42 34 26 27 20 14 14 20 28 35 39
6 6 6 9 5 5 7 4 1 0 2 3 3 1 2 2 1 2 7 12 9 6 15 17 15 16 13 15 15 12 14 6 6 7 12 15 24 4 11 13 6 11 19 35 46 38 35 28 22 17 15 17 29 38
9 15 13 11 7 5 5 3 1 1 2 2 3 3 4 4 2 6 10 10 11 12 12 19 20 16 22 26 22 21 16 12 17 17 18 17 18 25 9 4 9 8 8 9 19 26 32 33 28 24 20 18 19 21
Wind_Direction_850mb
241 245 253 262 268 274 284 293 296 299 305 312 315 323 319 309 275 178 239 217 117 290 86 37 42 359 349 269 315 46 243 197 260 254 266 1 262 18 277 18 342 329 315 321 341 318 344 345 335 4 55 61 10 18
243 247 255 260 264 272 280 283 286 294 301 309 316 321 308 280 234 179 100 280 217 254 23 236 244 272 314 4 341 282 14 360 2 347 319 252 254 224 34 217 157 330 21 329 19 16 73 46 74 76 53 48 34 20
237 238 245 258 260 261 266 277 285 290 298 306 312 313 299 254 213 198 165 263 293 274 254 217 209 218 218 233 326 313 86 354 307 326 318 345 316 327 340 279 269 62 32 285 271 107 111 102 91 85 78 70 44 37
224 235 234 235 241 248 263 275 283 288 294 301 306 307 289 229 203 192 151 220 229 310 285 126 209 241 220 209 201 298 335 333 296 269 273 281 299 305 354 360 286 103 235 311 72 56 119 131 104 104 85 67 53 49
208 200 201 222 211 232 255 274 281 285 289 296 305 306 277 191 182 188 199 167 244 296 329 74 189 208 211 207 209 218 235 300 276 231 225 249 270 338 255 301 279 23 26 26 16 21 14 132 127 119 84 57 52 73
179 184 203 195 199 227 260 275 282 285 282 295 309 307 174 157 159 133 169 232 249 214 276 249 103 208 202 192 194 203 219 258 273 289 266 291 39 285 285 263 125 94 63 23 98 71 89 120 122 112 96 68 78 105
169 180 189 188 209 250 268 270 280 278 274 293 313 174 142 148 146 142 23 190 203 188 251 248 188 169 192 193 201 214 216 251 270 283 246 273 155 204 277 286 127 101 116 116 116 114 114 140 134 123 103 91 108 123
173 173 179 211 226 283 283 283 278 254 252 293 195 142 141 139 113 66 7 297 170 197 255 265 164 187 185 196 208 213 237 212 212 256 264 246 164 224 269 116 117 142 142 146 127 83 117 132 133 128 114 115 120 135
168 170 172 184 250 289 273 116 128 244 266 148 123 113 121 128 204 161 101 123 176 237 287 225 259 153 172 219 206 173 238 235 159 240 232 206 235 216 111 156 158 164 167 158 140 124 125 134 139 140 131 142 141 146
178 182 191 194 176 151 114 125 92 109 129 127 119 99 176 187 220 177 278 205 196 214 244 258 247 263 190 184 199 216 178 255 220 189 137 230 254 111 159 214 159 176 159 162 158 160 148 145 147 160 150 155 151 150
183 187 189 179 143 154 147 137 129 141 136 126 146 56 16 147 139 210 268 250 205 230 216 232 236 229 207 222 214 216 298 204 243 150 228 205 217 155 173 182 175 171 165 164 156 157 171 169 174 167 152 150 151 146
192 190 190 177 156 145 162 151 154 157 167 167 142 114 136 195 223 218 206 203 231 239 180 231 214 219 178 222 233 174 245 199 258 133 230 238 115 135 157 185 174 172 166 154 140 137 134 142 156 160 156 151 149 144
190 187 182 174 165 176 162 177 181 172 175 160 206 166 205 176 32 219 195 209 238 178 236 219 221 211 181 219 215 221 233 229 110 223 222 68 129 141 150 167 166 168 161 148 134 132 133 135 146 152 151 151 148 144
182 180 179 173 167 168 158 157 172 171 176 239 182 332 219 206 227 226 241 289 238 263 270 236 235 204 215 202 215 212 223 154 231 229 218 140 141 141 148 154 155 157 154 146 138 134 135 139 146 150 151 151 147 142
177 179 176 171 164 170 172 173 162 181 169 267 265 236 219 243 259 281 296 298 276 258 261 246 241 210 215 207 250 228 195 232 206 221 104 122 138 149 152 153 152 151 148 143 141 139 141 149 151 152 154 153 149 151
159 159 189 166 167 170 175 171 176 170 213 234 243 263 251 268 279 321 321 311 310 265 247 258 216 243 227 222 226 208 227 229 177 110 125 142 144 152 152 151 151 148 147 145 142 143 148 155 158 159 157 158 160 148
139 174 199 164 159 163 172 165 159 192 228 208 217 233 268 283 270 299 299 304 292 287 245 225 220 220 264 229 221 297 254 120 127 127 138 155 155 157 152 149 147 144 143 143 141 141 149 159 161 163 165 167 167 175
116 226 172 160 143 157 181 172 194 255 261 238 255 258 243 289 311 312 346 327 316 309 273 246 285 224 238 238 210 155 194 122 86 131 148 151 155 156 153 151 148 145 144 143 143 147 152 164 169 171 171 170 178 167
169 191 177 171 164 161 181 218 203 265 238 251 241 260 256 243 79 210 138 322 204 19 243 343 260 249 265 17 185 112 103 113 120 135 139 149 154 156 156 153 152 151 147 149 147 150 162 170 175 176 176 175 197 174
188 187 181 182 181 195 217 213 200 237 249 211 220 246 246 185 239 197 185 95 66 61 56 261 293 344 357 97 88 98 108 124 156 155 147 156 162 163 164 165 166 161 155 156 156 158 164 171 183 185 183 182 190 173
133 189 189 186 199 235 265 215 200 234 251 196 157 163 175 184 156 150 211 176 190 244 175 235 273 288 39 48 73 83 71 70 73 102 133 153 171 177 175 173 170 172 174 174 171 175 174 185 190 188 191 187 190 201
178 189 163 180 231 221 242 217 232 221 219 116 157 194 152 161 156 199 209 201 228 191 137 156 160 106 149 65 57 63 48 45 54 65 75 174 196 195 191 184 185 185 190 188 181 183 181 189 190 191 188 191 188 189
143 120 198 199 238 239 255 206 222 223 204 151 205 219 179 172 220 191 222 197 127 174 180 173 170 171 153 131 75 33 3 347 309 290 270 251 234 208 199 201 196 193 189 182 182 178 178 188 195 190 192 193 192 204
140 227 228 209 209 235 194 209 209 199 170 182 183 202 200 179 164 211 260 199 110 196 200 201 215 204 201 214 225 225 240 292 295 285 275 256 246 221 208 205 201 199 198 180 185 183 187 183 198 193 196 197 200 196
250 234 228 246 233 202 213 204 195 178 184 197 182 226 158 171 233 217 310 345 242 224 234 237 231 239 234 216 199 217 236 278 303 292 273 249 241 234 216 205 209 201 195 184 187 190 188 188 195 199 201 202 202 201
267 204 211 234 196 220 188 200 194 159 184 184 185 164 172 184 254 243 122 65 98 187 209 256 276 265 250 247 222 236 293 314 323 293 277 240 250 234 230 215 209 205 197 196 194 196 197 202 208 206 211 206 206 208
242 200 194 217 241 200 221 182 178 198 214 200 157 192 205 211 206 154 130 106 79 56 25 341 291 270 294 217 192 272 296 326 337 294 268 267 257 245 237 234 215 203 199 196 195 201 201 208 217 219 218 207 204 201
282 30 213 169 211 204 250 206 204 227 144 216 222 222 164 152 203 116 116 175 283 311 328 323 316 292 284 210 221 255 280 331 334 317 274 282 264 241 238 239 226 211 196 189 195 198 205 211 219 224 217 203 196 198
218 161 162 182 200 196 205 211 65 66 61 13 356 43 21 93 359 350 320 302 285 281 291 292 275 270 274 274 239 262 318 318 333 335 349 288 230 235 230 231 206 204 200 192 190 188 184 196 209 214 203 192 189 194
135 227 257 158 276 105 60 22 22 26 31 23 333 293 281 276 298 298 299 287 284 286 277 269 267 262 277 271 265 262 286 303 327 286 70 114 12 65 156 193 198 192 200 182 184 191 197 198 205 178 179 186 190 191
170 220 265 269 276 61 17 318 292 320 318 300 328 309 272 290 281 303 334 323 315 294 277 272 263 260 257 263 282 312 276 251 260 281 261 211 70 61 63 134 174 188 201 212 189 197 193 182 174 171 180 191 194 195
244 266 309 305 326 272 281 265 241 298 314 323 321 4 5 284 197 128 12 354 348 321 270 261 271 262 259 263 270 271 280 251 259 263 263 255 242 178 45 75 92 164 189 211 199 188 194 192 187 181 175 182 193 198
292 300 293 296 293 268 269 228 139 169 226 259 262 282 278 304 60 10 347 345 330 330 322 283 261 250 263 259 254 232 210 218 231 261 283 291 284 243 234 27 359 9 65 137 184 197 198 201 204 200 194 186 185 192